International Skating Union - Official Site

Essent ISU World Cup Heerenveen
December 2-4, 2011

Draw | Lap Times | Index | World Cup

Referee: Jan  AUGUSTINUS  (NED)
Starter: Harrie  JANSSEN  (NED)
StartTime: EndTime: Air Temp: Ice Temp: Humidity:
15:25 15:52 18 ℃ -13.7 ℃ 26
Result Team Pursuit Ladies
Rankings as of Oct 12 2012 5:02PM
Rank: No.: Team: Nation: Time: Behind: Points:
Total 9
1 1 Canada (10) Brittany SCHUSSLER (7) Christine NESBITT (6) Cindy KLASSEN CAN CAN 3:00.010.5 - 19.16 - (19.1)
1.0 - 33.29 - (14.1)
1.5 - 47.37 - (14.0)
2.0 - 1:01.35 - (13.9)
2.5 - 1:15.49 - (14.1)
3.0 - 1:29.91 - (14.4)
3.5 - 1:44.64 - (14.7)
4.0 - 1:59.40 - (14.7)
4.5 - 2:14.30 - (14.9)
5.0 - 2:29.57 - (15.2)
5.5 - 2:44.74 - (15.1)
6.0 - 3:00.01 - (15.2)
100
2 3 Russia (77) Yekaterina LOBYSHEVA (80) Yekaterina SHIKHOVA (81) Yuliya SKOKOVA RUS RUS 3:02.380.5 - 19.00 - (19.0)
1.0 - 33.60 - (14.6)
1.5 - 48.24 - (14.6)
2.0 - 1:02.94 - (14.7)
2.5 - 1:17.76 - (14.8)
3.0 - 1:32.78 - (15.0)
3.5 - 1:47.78 - (15.0)
4.0 - 2:02.71 - (14.9)
4.5 - 2:17.70 - (14.9)
5.0 - 2:32.58 - (14.8)
5.5 - 2:47.50 - (14.9)
6.0 - 3:02.38 - (14.8)
2.37 80
3 4 Korea (48) Ju-Youn LEE (50) Seon-Yeong NOH (45) Bo-Reum KIM KOR KOR 3:03.180.5 - 19.33 - (19.3)
1.0 - 33.57 - (14.2)
1.5 - 47.93 - (14.3)
2.0 - 1:01.91 - (13.9)
2.5 - 1:16.48 - (14.5)
3.0 - 1:31.29 - (14.8)
3.5 - 1:46.36 - (15.0)
4.0 - 2:01.41 - (15.0)
4.5 - 2:16.79 - (15.3)
5.0 - 2:32.13 - (15.3)
5.5 - 2:47.79 - (15.6)
6.0 - 3:03.18 - (15.3)
3.17 70
4 7 Japan (38) Nao KODAIRA (42) Miho TAKAGI (33) Masako HOZUMI JPN JPN 3:03.630.5 - 19.28 - (19.2)
1.0 - 34.22 - (14.9)
1.5 - 48.69 - (14.4)
2.0 - 1:03.16 - (14.4)
2.5 - 1:17.62 - (14.4)
3.0 - 1:32.43 - (14.8)
3.5 - 1:47.50 - (15.0)
4.0 - 2:03.00 - (15.5)
4.5 - 2:18.08 - (15.0)
5.0 - 2:33.17 - (15.0)
5.5 - 2:48.32 - (15.1)
6.0 - 3:03.63 - (15.3)
3.62 60
5 6 Poland (69) Natalia CZERWONKA (72) Luiza ZLOTKOWSKA (70) Karolina DOMANSKA-KSYT POL POL 3:04.780.5 - 19.48 - (19.4)
1.0 - 34.18 - (14.7)
1.5 - 48.74 - (14.5)
2.0 - 1:03.51 - (14.7)
2.5 - 1:18.11 - (14.6)
3.0 - 1:32.98 - (14.8)
3.5 - 1:48.05 - (15.0)
4.0 - 2:03.49 - (15.4)
4.5 - 2:18.71 - (15.2)
5.0 - 2:34.07 - (15.3)
5.5 - 2:49.34 - (15.2)
6.0 - 3:04.78 - (15.4)
4.77 50
6 9 Norway (68) Ida NJÅTUN (66) Hege BØKKO (67) Mari HEMMER NOR NOR 3:04.890.5 - 19.28 - (19.2)
1.0 - 33.76 - (14.4)
1.5 - 48.09 - (14.3)
2.0 - 1:02.75 - (14.6)
2.5 - 1:17.75 - (15.0)
3.0 - 1:32.72 - (14.9)
3.5 - 1:47.93 - (15.2)
4.0 - 2:03.17 - (15.2)
4.5 - 2:18.55 - (15.3)
5.0 - 2:33.93 - (15.3)
5.5 - 2:49.25 - (15.3)
6.0 - 3:04.89 - (15.6)
4.88 45
7 5 Germany (27) Bente KRAUS (29) Isabell OST (28) Kathrin MATTSCHERODT GER GER 3:06.450.5 - 19.69 - (19.6)
1.0 - 34.15 - (14.4)
1.5 - 48.34 - (14.1)
2.0 - 1:03.07 - (14.7)
2.5 - 1:18.05 - (14.9)
3.0 - 1:33.02 - (14.9)
3.5 - 1:48.11 - (15.0)
4.0 - 2:03.08 - (14.9)
4.5 - 2:18.49 - (15.4)
5.0 - 2:34.21 - (15.7)
5.5 - 2:50.48 - (16.2)
6.0 - 3:06.45 - (15.9)
6.44 40
8 8 USA (91) Jilleanne ROOKARD (89) Maria LAMB (88) Kelly GUNTHER USA USA 3:08.800.5 - 20.04 - (20.0)
1.0 - 35.40 - (15.3)
1.5 - 50.79 - (15.3)
2.0 - 1:05.86 - (15.0)
2.5 - 1:21.16 - (15.3)
3.0 - 1:36.45 - (15.2)
3.5 - 1:52.03 - (15.5)
4.0 - 2:07.27 - (15.2)
4.5 - 2:22.57 - (15.3)
5.0 - 2:37.96 - (15.3)
5.5 - 2:53.56 - (15.6)
6.0 - 3:08.80 - (15.2)
8.79 36
9 2 Netherlands (65) Ireen WÜST (57) Marrit LEENSTRA (63) Linda de VRIES NED NED DNF0.5 - 18.84 - (18.8)
1.0 - 32.77 - (13.9)
1.5 - 46.69 - (13.9)
2.0 - 1:00.90 - (14.2)
2.5 - 1:15.20 - (14.3)
0